Content
SEND FEEDBACK

Daily
Averages
Monthly
Summary
United States of America

ST. LOUIS, MISSOURI


Home > North America > United States > Missouri
Elevation: 535 feet     Latitude: 38 45N     Longitude: 090 22W

WEATHER
 
SELECT A DAY
Number of Records: 196,291;   Date Range: 1/1/95 - 7/22/14
 
SHARE

PRINT THIS DATA

[ ← Previous Day ]
WEATHER ALMANAC - APRIL 27, 2013
[ Next Day → ]
[ °C ]   °F
Weather ElementAverageHighLow
Temperature51.4 °F54 °F (1:54 pm)48.2 °F (4:06 am)
Dewpoint49.1 °F52 °F (4:54 pm)45 °F (1:54 am)
Humidity91.9 %96 % (4:54 pm)83 % (1:54 am)
Barometer30.11 in30.27 in (1:54 am)29.94 in (11:54 pm)
Wind Speed5.1 mph9.2 mph (10:26 am)
Weather ElementAverage
Visibility4.1 mi
Wind DirectionESE (101.1 °)

Weather ElementTotal
Precipitation0.80 in
Heating Degree Days13.9 (Base 65)
Growing Degree Days1.1 (Base 50)
Averaged from 44 records on April 27, 2013
WEATHER CONDITIONS BREAKOUT
WIND DIRECTION BREAKOUT
WEATHER BY HOUR - APRIL 27, 2013
[ °C ]   °F
Local TimeTemperatureDewpointHumidityBarometerVisibilityWind DirectionWind SpeedGust SpeedPrecipitationEventsConditions
1:54 AM50.0 °F45.0 °F83 %30.27 in10.0 miCalmOvercast
2:54 AM50.0 °F46.0 °F86 %30.23 in4.0 miESE (110°)4.6 mph0.00 inRainLight Rain
3:54 AM48.9 °F46.9 °F93 %30.22 in8.0 miENE (70°)5.8 mph0.01 inOvercast
4:06 AM48.2 °F46.4 °F93 %30.21 in8.0 miENE (70°)5.8 mphOvercast
4:19 AM48.2 °F46.4 °F93 %30.21 in8.0 miENE (70°)4.6 mphOvercast
4:54 AM50.0 °F46.9 °F89 %30.22 in6.0 miCalmOvercast
5:33 AM48.2 °F46.4 °F93 %30.18 in4.0 miEast (80°)5.8 mph0.00 inOvercast
5:54 AM48.9 °F46.9 °F93 %30.19 in6.0 miEast (90°)3.5 mph0.00 inOvercast
6:09 AM48.2 °F46.4 °F93 %30.19 in5.0 miEast (100°)5.8 mphOvercast
6:18 AM48.2 °F46.4 °F93 %30.19 in4.0 miCalmOvercast
6:35 AM48.2 °F46.4 °F93 %30.18 in2.0 miEast (80°)5.8 mph0.00 inRainLight Rain
6:50 AM48.2 °F46.4 °F93 %30.18 in1.5 miEast (80°)6.9 mph0.01 inOvercast
6:54 AM50.0 °F46.9 °F89 %30.18 in1.5 miEast (80°)6.9 mph0.01 inOvercast
7:17 AM50.0 °F48.2 °F94 %30.17 in2.0 miEast (90°)6.9 mphOvercast
7:54 AM50.0 °F48.0 °F93 %30.19 in3.0 miEast (90°)4.6 mph0.00 inRainLight Rain
8:07 AM50.0 °F48.2 °F94 %30.17 in2.5 miEast (100°)4.6 mph0.03 inRainRain
8:54 AM50.0 °F48.0 °F93 %30.16 in2.5 miEast (90°)8.1 mph0.10 inRainLight Rain
9:54 AM51.1 °F48.9 °F92 %30.15 in2.5 miEast (80°)5.8 mph0.05 inRainLight Rain
10:26 AM51.8 °F48.2 °F88 %30.13 in3.0 miEast (80°)9.2 mph0.03 inRainLight Rain
10:54 AM52.0 °F48.9 °F89 %30.14 in4.0 miEast (80°)9.2 mph0.04 inRainLight Rain
11:08 AM51.8 °F48.2 °F88 %30.14 in2.5 miEast (90°)4.6 mph0.01 inRainLight Rain
11:43 AM51.8 °F48.2 °F88 %30.14 in2.5 miEast (100°)3.5 mph0.02 inRainLight Rain
11:52 AM51.8 °F48.2 °F88 %30.14 in2.5 miEast (90°)3.5 mph0.02 inRainLight Rain
11:54 AM52.0 °F50.0 °F93 %30.14 in2.5 miEast (100°)4.6 mph0.03 inRainLight Rain
12:05 PM51.8 °F50.0 °F94 %30.13 in2.0 miEast (90°)4.6 mph0.00 inRainLight Rain
12:27 PM53.6 °F50.0 °F88 %30.12 in1.8 miEast (90°)6.9 mph0.01 inRainLight Rain
12:31 PM53.6 °F50.0 °F88 %30.12 in2.0 miEast (90°)5.8 mph0.01 inRainLight Rain
12:54 PM53.1 °F51.1 °F93 %30.11 in2.0 miEast (80°)5.8 mph0.02 inRainLight Rain
1:54 PM54.0 °F51.1 °F90 %30.09 in2.0 miEast (80°)4.6 mph0.00 inOvercast
2:54 PM53.1 °F51.1 °F93 %30.06 in2.0 miEast (80°)6.9 mphOvercast
3:54 PM53.1 °F51.1 °F93 %30.03 in2.0 miNE (50°)6.9 mphOvercast
4:08 PM53.6 °F51.8 °F94 %30.02 in3.0 miNE (50°)6.9 mphOvercast
4:21 PM53.6 °F51.8 °F94 %30.02 in3.0 miENE (60°)8.1 mph0.00 inRainLight Rain
4:34 PM53.6 °F51.8 °F94 %30.01 in2.0 miENE (70°)6.9 mph0.00 inRainLight Rain
4:54 PM53.1 °F52.0 °F96 %30.01 in2.0 miENE (70°)6.9 mph0.02 inRainLight Rain
5:54 PM54.0 °F52.0 °F93 %29.99 in2.0 miNNE (30°)4.6 mph0.03 inRainLight Rain
6:54 PM53.1 °F52.0 °F96 %29.99 in2.0 miNorth (360°)3.5 mph0.17 inRainRain
7:54 PM53.1 °F51.1 °F93 %29.98 in2.0 miNorth (360°)4.6 mph0.17 inRainLight Rain
8:01 PM53.6 °F51.8 °F94 %29.97 in9.0 miNorth (360°)4.6 mph0.00 inRainLight Rain
8:19 PM53.6 °F51.8 °F94 %29.97 in9.0 miNorth (10°)3.5 mph0.00 inRainLight Rain
8:54 PM53.1 °F51.1 °F93 %29.98 in9.0 miNorth (10°)4.6 mph0.00 inOvercast
9:54 PM53.1 °F51.1 °F93 %29.97 in8.0 miNNW (330°)3.5 mph0.01 inOvercast
10:54 PM53.1 °F51.1 °F93 %29.95 in8.0 miNorth (360°)3.5 mphOvercast
11:54 PM53.1 °F51.1 °F93 %29.94 in9.0 miCalmOvercast
Hourly data recorded from KSUS, located miles away from St. Louis, Missouri







STORIES FROM OUR PARTNERS